User: anonymous   Login
Location: Unspecified
(0.0000°N, 0.0000°E)
Time: 21:28:13
(UTC+00:00)
Language:

STARLINK-3456 - Orbit

View from above orbital plane
View from above orbital plane
View from above satellite
View from above satellite

Ground track
Ground track

The orbit is defined by the following mean orbital elements,

1 51759U          26145.49519890 +.00000000 +00000-0 +27150-3 0 00001
2 51759  53.2121 324.3272 0001123  76.3445 283.7672 15.08849188    09
Epoch (UTC): 25 May 2026 11:53:05
Eccentricity: 0.0001123
inclination: 53.2121°
perigee height: 539 km
apogee height: 540 km
right ascension of ascending node: 324.3272°
argument of perigee: 76.3445°
revolutions per day: 15.08849188
mean anomaly at epoch: 283.7672°

The dashed part of the orbit path shows where the satellite is in the earth's shadow,  

DLR